Date String (YYYY-MM-DD hh:mm:ss) UTC,Instrument flags,Ambient pressure (hPa),Sample flow (lpm),Bypass flow (lpm),Sample temperature (°C),Ambient temperature (°C),ASC tube jacket temperature (°C),LED temperature (°C),Box temperature (°C),Sample RH (%),Span deviation,Mass concentration (μg/m³),Mass concentration (μg/m³),Mass concentration (μg/m³)
DateTimeUTC,F1_M11,P_M11,Q1_M11,Q2_M11,T1_M11,T2_M11,T3_M11,T4_M11,T5_M11,U1_M11,ZSPAN_M11,X2_M11,X0_M11,X1_M11
2022-12-21 13:00:00,,0819.7,5.04,0.00,21.7,20.3,00.0,30.6,23.3,09.8,0000.0,0001.31,0003.38,0000.84
2022-12-21 13:01:00,,0819.8,5.02,0.00,21.7,20.1,00.0,30.6,23.2,09.8,0000.0,0001.31,0003.29,0000.84
2022-12-21 13:02:00,,0819.8,4.96,0.00,21.6,20.1,00.0,30.6,23.2,09.8,0000.0,0001.29,0003.18,0000.83
2022-12-21 13:03:00,,0819.8,5.00,0.00,21.6,20.0,00.0,30.6,23.1,09.8,0000.0,0001.30,0003.12,0000.83
2022-12-21 13:04:00,,0819.9,5.03,0.00,21.5,19.8,00.0,30.6,23.1,09.7,0000.0,0001.35,0003.14,0000.84
2022-12-21 13:05:00,,0819.9,4.99,0.00,21.5,20.3,00.0,30.5,23.2,09.7,0000.0,0001.34,0002.35,0000.84
2022-12-21 13:06:00,,0819.9,4.98,0.00,21.6,21.5,00.0,30.5,23.4,09.7,0000.0,0001.30,0002.19,0000.84
2022-12-21 13:07:00,,0819.8,4.97,0.00,21.7,22.0,00.0,30.5,23.6,09.6,0000.0,0001.32,0002.22,0000.84
2022-12-21 13:08:00,,0819.9,5.03,0.00,21.8,21.5,00.0,30.5,23.6,09.6,0000.0,0001.37,0002.35,0000.84
2022-12-21 13:09:00,,0819.8,5.01,0.00,21.7,21.0,00.0,30.6,23.4,09.6,0000.0,0001.38,0002.37,0000.84
2022-12-21 13:10:00,,0819.6,4.96,0.00,21.7,20.5,00.0,30.6,23.3,09.6,0000.0,0001.37,0003.45,0000.84
2022-12-21 13:11:00,,0819.7,5.02,0.00,21.6,20.2,00.0,30.6,23.2,09.2,0000.0,0001.33,0003.95,0000.84
2022-12-21 13:12:00,,0819.7,5.01,0.00,21.6,20.1,00.0,30.6,23.2,09.2,0000.0,0001.29,0004.12,0000.83
2022-12-21 13:13:00,,0819.8,4.98,0.00,21.6,20.0,00.0,30.6,23.1,09.5,0000.0,0001.28,0004.29,0000.83
2022-12-21 13:14:00,,0819.7,4.97,0.00,21.5,19.9,00.0,30.5,23.1,09.5,0000.0,0001.30,0004.36,0000.83
2022-12-21 13:15:00,,0819.8,5.02,0.00,21.5,19.9,00.0,30.5,23.1,09.5,0000.0,0001.24,0005.38,0000.82
2022-12-21 13:16:00,,0819.8,5.02,0.00,21.5,19.8,00.0,30.5,23.1,09.5,0000.0,0001.22,0005.74,0000.82
2022-12-21 13:17:00,,0819.7,4.97,0.00,21.4,19.7,00.0,30.5,23.0,09.5,0000.0,0001.23,0005.81,0000.81
2022-12-21 13:18:00,,0819.7,5.00,0.00,21.5,20.5,00.0,30.4,23.1,09.5,0000.0,0001.21,0005.80,0000.81
2022-12-21 13:19:00,,0819.7,5.04,0.00,21.6,21.7,00.0,30.4,23.4,09.2,0000.0,0001.14,0006.02,0000.80
2022-12-21 13:20:00,,0819.7,4.98,0.00,21.7,21.9,00.0,30.4,23.6,09.3,0000.0,0001.13,0006.49,0000.80
2022-12-21 13:21:00,,0819.7,4.98,0.00,21.7,21.4,00.0,30.5,23.5,09.3,0000.0,0001.16,0006.03,0000.78
2022-12-21 13:22:00,,0819.8,5.02,0.00,21.7,21.0,00.0,30.5,23.4,09.3,0000.0,0001.18,0004.99,0000.77
2022-12-21 13:23:00,,0819.8,5.02,0.00,21.7,20.7,00.0,30.5,23.4,09.4,0000.0,0001.22,0005.19,0000.78
2022-12-21 13:24:00,,0819.8,4.96,0.00,21.6,20.4,00.0,30.5,23.3,09.4,0000.0,0001.23,0004.92,0000.78
2022-12-21 13:25:00,,0819.8,5.01,0.00,21.6,20.3,00.0,30.5,23.2,09.3,0000.0,0001.24,0004.96,0000.79
2022-12-21 13:26:00,,0819.8,5.02,0.00,21.6,20.1,00.0,30.5,23.2,09.2,0000.0,0001.27,0004.04,0000.79
2022-12-21 13:27:00,,0819.8,4.95,0.00,21.6,20.1,00.0,30.5,23.2,09.1,0000.0,0001.29,0004.21,0000.78
2022-12-21 13:28:00,,0819.7,5.02,0.00,21.5,20.0,00.0,30.5,23.1,09.3,0000.0,0001.32,0004.94,0000.80
2022-12-21 13:29:00,,0819.8,5.02,0.00,21.5,19.9,00.0,30.5,23.1,09.3,0000.0,0001.31,0005.51,0000.79
2022-12-21 13:30:00,,0819.8,5.00,0.00,21.5,20.0,00.0,30.5,23.1,09.2,0000.0,0001.31,0005.47,0000.79
2022-12-21 13:31:00,,0819.9,4.98,0.00,21.5,21.0,00.0,30.4,23.3,09.2,0000.0,0001.32,0004.82,0000.79
2022-12-21 13:32:00,,0819.9,5.03,0.00,21.7,22.0,00.0,30.4,23.6,09.2,0000.0,0001.27,0004.56,0000.80
2022-12-21 13:33:00,,0820.0,4.97,0.00,21.8,22.0,00.0,30.5,23.7,09.1,0000.0,0001.27,0005.82,0000.81
2022-12-21 13:34:00,,0820.0,5.01,0.00,21.8,21.5,00.0,30.5,23.6,09.0,0000.0,0001.27,0006.10,0000.81
2022-12-21 13:35:00,,0820.0,4.98,0.00,21.8,21.1,00.0,30.5,23.5,09.1,0000.0,0001.29,0006.21,0000.82
2022-12-21 13:36:00,,0820.0,5.02,0.00,21.7,20.8,00.0,30.6,23.5,09.1,0000.0,0001.28,0006.31,0000.82
2022-12-21 13:37:00,,0820.0,5.00,0.00,21.7,20.5,00.0,30.6,23.4,09.1,0000.0,0001.28,0006.29,0000.83
2022-12-21 13:38:00,,0820.1,4.96,0.00,21.7,20.4,00.0,30.6,23.3,09.1,0000.0,0001.23,0005.43,0000.83
2022-12-21 13:39:00,,0820.1,5.02,0.00,21.7,20.3,00.0,30.5,23.3,09.1,0000.0,0001.21,0004.71,0000.83
2022-12-21 13:40:00,,0820.1,5.02,0.00,21.6,20.3,00.0,30.5,23.3,09.1,0000.0,0001.22,0004.12,0000.84
2022-12-21 13:41:00,,0820.1,4.95,0.00,21.6,20.2,00.0,30.5,23.3,09.0,0000.0,0001.25,0004.11,0000.84
2022-12-21 13:42:00,,0820.0,5.01,0.00,21.6,20.2,00.0,30.5,23.2,09.0,0000.0,0001.23,0004.06,0000.84
2022-12-21 13:43:00,,0820.1,5.02,0.00,21.6,20.1,00.0,30.5,23.2,09.2,0000.0,0001.22,0004.05,0000.85
2022-12-21 13:44:00,,0820.1,4.98,0.00,21.6,20.2,00.0,30.5,23.2,09.2,0000.0,0001.24,0003.17,0000.84
2022-12-21 13:45:00,,0820.0,5.01,0.00,21.6,21.1,00.0,30.4,23.4,09.2,0000.0,0001.21,0002.38,0000.85
2022-12-21 13:46:00,,0820.0,5.00,0.00,21.7,22.0,00.0,30.4,23.7,09.1,0000.0,0001.19,0002.21,0000.84
2022-12-21 13:47:00,,0820.0,5.01,0.00,21.8,21.8,00.0,30.5,23.7,09.1,0000.0,0001.21,0002.17,0000.84
2022-12-21 13:48:00,,0820.0,5.02,0.00,21.8,21.3,00.0,30.6,23.6,09.1,0000.0,0001.20,0002.18,0000.84
2022-12-21 13:49:00,,0819.9,4.95,0.00,21.8,21.0,00.0,30.6,23.5,09.1,0000.0,0001.18,0003.21,0000.85
2022-12-21 13:50:00,,0819.9,5.03,0.00,21.8,20.7,00.0,30.6,23.4,09.1,0000.0,0001.18,0003.22,0000.86
2022-12-21 13:51:00,,0819.9,5.02,0.00,21.7,20.6,00.0,30.6,23.3,09.1,0000.0,0001.18,0003.22,0000.86
2022-12-21 13:52:00,,0819.9,4.95,0.00,21.7,20.4,00.0,30.6,23.3,09.1,0000.0,0001.17,0003.36,0000.86
2022-12-21 13:53:00,,0819.9,5.01,0.00,21.7,20.3,00.0,30.5,23.2,09.1,0000.0,0001.19,0003.42,0000.87
2022-12-21 13:54:00,,0819.9,5.03,0.00,21.6,20.1,00.0,30.5,23.2,09.1,0000.0,0001.24,0003.54,0000.87
2022-12-21 13:55:00,,0819.8,5.02,0.00,21.6,20.1,00.0,30.5,23.2,09.2,0000.0,0001.21,0003.38,0000.88
2022-12-21 13:56:00,,0819.6,4.96,0.00,21.6,20.9,00.0,30.5,23.4,09.2,0000.0,0001.25,0003.48,0000.88
2022-12-21 13:57:00,,0819.9,5.04,0.00,21.8,22.0,00.0,30.5,23.7,09.1,0000.0,0001.31,0003.69,0000.89
2022-12-21 13:58:00,,0819.9,4.97,0.00,21.9,22.6,00.0,30.5,23.9,09.1,0000.0,0001.30,0003.66,0000.90
2022-12-21 13:59:00,,0819.8,5.02,0.00,21.9,22.0,00.0,30.6,23.9,09.1,0000.0,0001.30,0003.59,0000.90
